DW9169 Weather Reports


time (UTC)temp
C
wind
direction
speed
KPH
gust
KPH
rain 1hr
cm
rain 24hr
cm
rain mn
cm
humidity
%
barometer
mb
20260506184407 10 355 0.0 0.0 0.00 1.17 0.91 87 1009.4
20260506183907 10 355 0.0 0.0 0.00 1.17 0.91 87 1009.3
20260506183407 10 355 0.0 0.0 0.00 1.17 0.91 87 1009.3
20260506181908 11 355 0.0 0.0 0.00 1.19 0.91 87 1009.1
20260506181407 11 355 0.0 0.0 0.00 1.19 0.91 87 1009.1
20260506180908 11 355 0.0 0.0 0.00 1.22 0.91 87 1009.0
20260506180408 11 355 0.0 0.0 0.00 1.22 0.91 87 1009.0
20260506175908 11 355 0.0 0.0 0.00 1.22 0.91 87 1008.9
20260506175407 11 355 0.0 0.0 0.00 1.24 0.91 87 1008.9
20260506174907 11 355 0.0 0.0 0.00 1.24 0.91 87 1008.8
20260506174408 11 355 0.0 0.0 0.00 1.24 0.91 87 1008.7
20260506173407 11 355 0.0 0.0 0.00 1.24 0.91 87 1008.7
20260506172908 11 355 0.0 0.0 0.00 1.24 0.91 87 1008.6
20260506172408 11 355 0.0 0.0 0.00 1.24 0.91 87 1008.5
20260506171907 11 351 0.0 0.0 0.00 1.24 0.91 87 1008.5
20260506170908 11 23 0.0 0.0 0.00 1.24 0.91 87 1008.4
20260506170409 11 121 0.0 0.0 0.00 1.24 0.91 87 1008.4
20260506165407 11 121 0.0 0.0 0.00 1.24 0.91 87 1008.3
20260506164407 11 121 0.0 0.0 0.00 1.24 0.91 87 1008.2
20260506163907 11 121 0.0 0.0 0.00 1.24 0.91 87 1008.2
20260506163407 11 122 0.0 0.0 0.00 1.24 0.91 87 1008.2
20260506162907 11 99 0.0 0.0 0.00 1.24 0.91 87 1008.2
20260506162407 11 99 0.0 0.0 0.00 1.24 0.91 87 1008.2
20260506161407 11 99 0.0 0.0 0.00 1.24 0.91 87 1008.3
20260506160907 11 107 0.0 0.0 0.00 1.24 0.91 87 1008.2
20260506160407 11 111 0.0 0.0 0.00 1.24 0.91 87 1008.2
20260506155907 11 99 0.0 0.0 0.00 1.24 0.91 87 1008.2
20260506155407 11 94 0.0 0.0 0.00 1.24 0.91 87 1008.2
20260506154907 11 28 0.0 0.0 0.00 1.24 0.91 87 1008.2
20260506154407 11 345 0.0 0.0 0.00 1.24 0.91 87 1008.2
20260506153907 12 274 0.0 0.0 0.00 1.24 0.91 87 1008.2
20260506153408 12 275 0.0 0.0 0.00 1.24 0.91 87 1008.2
20260506152907 12 275 0.0 0.0 0.00 1.24 0.91 87 1008.1
20260506152407 12 274 0.0 0.0 0.00 1.24 0.91 87 1008.2
20260506151407 11 274 0.0 0.0 0.00 1.24 0.91 87 1008.2
20260506150907 11 275 0.0 0.0 0.00 1.24 0.91 87 1008.2
20260506150408 11 275 0.0 0.0 0.00 1.24 0.91 87 1008.2
20260506145908 12 274 0.0 0.0 0.00 1.24 0.91 87 1008.2
20260506145407 12 274 0.0 0.0 0.00 1.24 0.91 87 1008.2
20260506144907 12 274 0.0 0.0 0.00 1.24 0.91 87 1008.2
20260506144407 12 274 0.0 0.0 0.00 1.24 0.91 87 1008.2
20260506143907 12 274 0.0 0.0 0.00 1.24 0.91 87 1008.1
20260506143407 12 269 0.0 0.0 0.00 1.24 0.91 87 1008.1
20260506142907 12 264 1.6 3.2 0.00 1.24 0.91 87 1008.1
20260506141907 12 265 0.0 0.0 0.00 1.24 0.91 87 1008.1
20260506141408 12 282 0.0 0.0 0.00 1.24 0.91 87 1008.1
20260506140407 12 282 0.0 0.0 0.00 1.24 0.91 87 1008.3
20260506135907 12 276 0.0 0.0 0.00 1.24 0.91 87 1008.3
20260506135407 12 291 0.0 0.0 0.00 1.24 0.91 87 1008.3
20260506134907 12 204 0.0 3.2 0.00 1.24 0.91 87 1008.2
20260506134407 12 22 0.0 0.0 0.00 1.24 0.91 87 1008.2
20260506133907 11 257 0.0 0.0 0.00 1.24 0.91 87 1008.3
20260506133408 11 306 0.0 0.0 0.00 1.24 0.91 87 1008.3
20260506132407 11 303 0.0 0.0 0.00 1.24 0.91 87 1008.2
20260506131907 11 296 0.0 0.0 0.00 1.24 0.91 87 1008.3
20260506130907 11 293 3.2 8.0 0.00 1.24 0.91 87 1008.2
20260506130408 11 282 1.6 4.8 0.00 1.24 0.91 87 1008.2
20260506125907 11 292 1.6 4.8 0.00 1.24 0.91 88 1008.2
20260506125407 11 348 0.0 0.0 0.00 1.24 0.91 88 1008.2
20260506124907 11 24 0.0 3.2 0.00 1.24 0.91 88 1008.1
20260506123907 11 269 1.6 3.2 0.00 1.24 0.91 88 1008.1
20260506123408 11 11 1.6 4.8 0.00 1.24 0.91 88 1008.0
20260506122907 11 297 1.6 3.2 0.00 1.24 0.91 88 1008.0
20260506122408 11 294 1.6 4.8 0.00 1.24 0.91 88 1008.0
20260506121907 11 22 0.0 3.2 0.00 1.24 0.91 88 1007.9
20260506121407 11 0 0.0 4.8 0.00 1.24 0.91 88 1007.9
20260506120908 11 313 0.0 1.6 0.00 1.24 0.91 88 1007.9
20260506120408 11 262 1.6 3.2 0.00 1.24 0.91 88 1007.9
20260506115907 11 350 0.0 3.2 0.00 1.24 0.91 88 1008.0
20260506115407 11 345 0.0 4.8 0.00 1.24 0.91 88 1008.0
20260506114907 11 1 0.0 3.2 0.00 1.24 0.91 88 1007.9
20260506113907 11 34 0.0 4.8 0.00 1.24 0.91 89 1007.9
20260506113407 11 30 1.6 4.8 0.00 1.24 0.91 89 1007.9
20260506112907 11 326 1.6 3.2 0.00 1.24 0.91 89 1007.8
20260506112407 11 52 1.6 4.8 0.00 1.24 0.91 89 1007.9
20260506111908 11 29 1.6 3.2 0.00 1.24 0.91 89 1007.9
20260506111407 11 51 1.6 3.2 0.00 1.24 0.91 89 1007.9
20260506110407 10 33 1.6 11.3 0.00 1.24 0.91 89 1007.9
20260506105908 10 64 0.0 0.0 0.00 1.24 0.91 89 1007.9
20260506105407 10 37 0.0 1.6 0.00 1.24 0.91 89 1008.0
20260506104407 10 24 0.0 1.6 0.03 1.24 0.91 89 1008.0
20260506103907 10 28 0.0 3.2 0.03 1.24 0.91 89 1008.0
20260506103407 9 38 1.6 12.9 0.03 1.24 0.91 89 1008.0
20260506102907 10 48 1.6 3.2 0.05 1.24 0.91 89 1008.0
20260506101907 10 55 0.0 4.8 0.05 1.24 0.91 89 1007.9
20260506101408 10 43 1.6 4.8 0.05 1.24 0.91 89 1007.9
20260506100907 10 73 0.0 4.8 0.05 1.24 0.91 89 1007.8
20260506100408 9 35 0.0 1.6 0.05 1.24 0.91 89 1007.7
20260506095908 9 44 0.0 4.8 0.08 1.24 0.91 89 1007.7
20260506095407 9 347 0.0 0.0 0.08 1.24 0.91 89 1007.7
20260506094907 9 32 0.0 0.0 0.10 1.24 0.91 89 1007.7
20260506093408 9 44 0.0 0.0 0.08 1.22 0.89 89 1007.6
20260506092907 9 47 0.0 3.2 0.05 1.19 0.89 89 1007.6
20260506091911 9 143 0.0 0.0 0.05 1.19 0.89 89 1007.5
20260506090908 9 26 0.0 4.8 0.05 1.19 0.86 89 1007.4
20260506090407 8 24 1.6 3.2 0.05 1.19 0.86 89 1007.4
20260506085907 8 319 0.0 3.2 0.05 1.17 0.84 89 1007.4
20260506085408 8 336 0.0 4.8 0.05 1.17 0.84 89 1007.4
20260506084907 8 39 0.0 4.8 0.03 1.17 0.81 89 1007.3
20260506084407 8 357 1.6 4.8 0.03 1.17 0.81 89 1007.3
20260506083907 8 319 0.0 3.2 0.03 1.17 0.81 89 1007.2
20260506083407 8 307 0.0 4.8 0.03 1.17 0.81 89 1007.2
20260506082907 8 330 0.0 4.8 0.03 1.17 0.81 89 1007.1
20260506081907 8 24 0.0 3.2 0.05 1.17 0.81 89 1007.1
20260506081407 8 291 1.6 3.2 0.03 1.14 0.79 89 1007.0
20260506080907 8 316 1.6 3.2 0.03 1.14 0.79 89 1007.0
20260506080407 8 53 1.6 4.8 0.03 1.14 0.79 89 1007.0
20260506073406 8 327 1.6 8.0 0.05 1.17 0.79 89 1006.8
20260506072907 8 321 0.0 1.6 0.05 1.17 0.79 89 1006.6
20260506072407 8 313 0.0 1.6 0.08 1.17 0.79 89 1006.7
20260506071907 8 304 1.6 3.2 0.05 1.17 0.79 89 1006.6
20260506071407 8 16 1.6 3.2 0.08 1.17 0.79 89 1006.6
20260506070908 8 5 0.0 1.6 0.08 1.17 0.79 89 1006.6
20260506070406 8 37 0.0 4.8 0.08 1.17 0.79 89 1006.6
20260506062407 8 2 1.6 3.2 0.13 1.09 0.71 89 1006.5
20260506061407 7 181 0.0 0.0 0.15 1.09 0.71 89 1006.4
20260506060407 7 255 0.0 0.0 0.15 1.09 0.71 89 1006.5
20260506051406 7 35 0.0 1.6 0.10 0.94 0.56 90 1006.5
20260506050907 7 338 1.6 3.2 0.13 0.94 0.56 90 1006.4
20260506044907 7 336 1.6 4.8 0.08 0.89 0.51 89 1006.3
20260506044408 7 27 0.0 3.2 0.08 0.89 0.51 89 1006.3
20260506043907 7 12 0.0 3.2 0.05 0.86 0.48 89 1006.3
20260506043407 7 10 1.6 3.2 0.08 0.86 0.48 89 1006.3
20260506042907 7 36 0.0 4.8 0.08 0.84 0.46 89 1006.3
20260506042407 7 342 1.6 3.2 0.08 0.84 0.46 89 1006.2
20260506041907 7 15 0.0 0.0 0.08 0.84 0.46 89 1006.2
20260506041407 7 26 0.0 1.6 0.10 0.84 0.46 89 1006.2
20260506040908 8 72 1.6 4.8 0.08 0.81 0.43 89 1006.1
20260506040407 8 73 1.6 11.3 0.08 0.81 0.43 89 1006.1
20260506035407 8 52 0.0 4.8 0.08 0.81 0.43 90 1006.1
20260506034907 8 46 1.6 4.8 0.05 0.79 0.43 89 1006.1
20260506034406 8 62 0.0 0.0 0.05 0.79 0.43 89 1006.2
20260506033906 8 56 0.0 0.0 0.05 0.79 0.43 89 1006.2
20260506032907 8 53 1.6 3.2 0.05 0.76 0.38 89 1006.2
20260506031908 8 27 1.6 4.8 0.05 0.76 0.38 89 1006.2
20260506031407 8 34 0.0 1.6 0.05 0.74 0.36 89 1006.2
20260506030907 8 52 1.6 3.2 0.05 0.74 0.36 89 1006.2
20260506030408 8 41 0.0 3.2 0.05 0.74 0.36 89 1006.2
20260506025907 8 18 0.0 1.6 0.05 0.74 0.36 89 1006.3
20260506025407 8 61 1.6 3.2 0.05 0.74 0.36 89 1006.3
20260506024907 8 58 1.6 3.2 0.05 0.74 0.36 89 1006.3
20260506024407 8 14 1.6 3.2 0.05 0.74 0.36 89 1006.3
20260506023907 8 13 0.0 3.2 0.05 0.74 0.36 89 1006.3
20260506023407 8 41 0.0 3.2 0.08 0.74 0.36 89 1006.4
20260506022907 8 2 1.6 4.8 0.05 0.71 0.33 89 1006.3
20260506022407 8 5 1.6 12.9 0.05 0.71 0.33 89 1006.4
20260506021906 8 51 0.0 3.2 0.08 0.71 0.33 89 1006.3
20260506021407 8 79 1.6 4.8 0.05 0.71 0.33 89 1006.3
20260506020407 8 68 0.0 3.2 0.08 0.71 0.33 89 1006.4
20260506015907 8 64 0.0 3.2 0.08 0.71 0.33 89 1006.4
20260506015407 8 79 0.0 3.2 0.08 0.69 0.30 89 1006.3
20260506014907 8 59 0.0 3.2 0.08 0.69 0.30 89 1006.3
20260506014406 8 43 1.6 8.0 0.10 0.69 0.30 89 1006.3
20260506012907 8 39 1.6 4.8 0.10 0.66 0.28 89 1006.4
20260506012408 8 52 0.0 4.8 0.10 0.66 0.28 89 1006.4
20260506011907 9 44 1.6 8.0 0.08 0.64 0.25 89 1006.4
20260506011407 9 89 1.6 4.8 0.10 0.64 0.25 89 1006.4
20260506010907 9 316 1.6 4.8 0.10 0.64 0.25 89 1006.4
20260506010407 9 42 0.0 4.8 0.08 0.61 0.23 89 1006.3
20260506005907 9 52 0.0 3.2 0.10 0.61 0.23 89 1006.4
20260506005407 9 58 1.6 11.3 0.08 0.61 0.23 89 1006.4
20260506004908 9 67 0.0 0.0 0.10 0.61 0.23 89 1006.4
20260506004406 9 5 0.0 3.2 0.08 0.58 0.20 89 1006.4
20260506003906 9 50 1.6 11.3 0.10 0.58 0.20 89 1006.4
20260506003407 9 0 0.0 0.0 0.10 0.58 0.20 89 1006.5
20260506002407 9 53 0.0 0.0 0.08 0.56 0.18 89 1006.5
20260506001907 9 9 1.6 4.8 0.10 0.56 0.18 89 1006.5
20260506001406 9 40 0.0 0.0 0.08 0.53 0.15 89 1006.5
20260506000907 9 68 1.6 4.8 0.08 0.53 0.15 89 1006.6
20260506000408 9 61 0.0 3.2 0.10 0.53 0.15 89 1006.6
20260505235907 9 59 1.6 4.8 0.08 0.51 0.15 89 1006.7
20260505235407 9 44 1.6 4.8 0.10 0.51 0.15 89 1006.7
20260505234907 9 59 0.0 11.3 0.08 0.51 0.13 89 1006.7
20260505234408 9 30 1.6 4.8 0.08 0.51 0.13 89 1006.7
20260505233907 9 65 0.0 4.8 0.05 0.48 0.10 89 1006.7
20260505232907 9 46 1.6 4.8 0.08 0.48 0.10 89 1006.8
20260505232407 9 25 1.6 16.1 0.08 0.48 0.10 89 1006.8
20260505231907 9 62 0.0 4.8 0.05 0.46 0.08 89 1006.9
20260505231406 9 54 1.6 8.0 0.05 0.46 0.08 89 1006.8
20260505230907 9 39 1.6 9.7 0.08 0.46 0.08 89 1006.9
20260505230407 9 51 3.2 9.7 0.05 0.43 0.05 89 1006.9
20260505225907 10 63 3.2 12.9 0.05 0.43 0.05 89 1006.9
20260505225407 10 56 1.6 11.3 0.05 0.43 0.05 89 1006.9
20260505224907 10 26 3.2 12.9 0.05 0.43 0.05 89 1007.0
20260505224407 10 48 1.6 12.9 0.05 0.43 0.05 89 1007.0
20260505223906 10 37 3.2 8.0 0.08 0.43 0.05 89 1007.0
20260505223407 10 34 1.6 4.8 0.05 0.41 0.03 89 1007.0
20260505222908 10 79 1.6 8.0 0.05 0.41 0.03 89 1007.0
20260505222407 10 36 1.6 4.8 0.08 0.41 0.03 89 1007.0
20260505221907 10 42 4.8 12.9 0.08 0.41 0.03 89 1006.9
20260505221407 10 44 3.2 11.3 0.10 0.41 0.03 89 1007.0
20260505220407 10 38 3.2 12.9 0.10 0.38 0.00 89 1007.0
20260505215907 10 40 1.6 9.7 0.10 0.38 0.38 89 1007.0
20260505215407 10 61 1.6 11.3 0.10 0.38 0.38 89 1007.1
20260505214907 10 44 1.6 9.7 0.08 0.36 0.36 89 1007.0
20260505214407 10 54 1.6 4.8 0.10 0.36 0.36 89 1007.1
20260505212906 10 43 1.6 11.3 0.10 0.33 0.33 89 1007.1
20260505211907 10 0 1.6 12.9 0.10 0.33 0.33 89 1007.1
20260505211407 10 9 1.6 8.0 0.08 0.30 0.30 89 1007.2
20260505210907 10 48 3.2 16.1 0.08 0.30 0.30 89 1007.2
20260505210406 10 37 0.0 3.2 0.08 0.28 0.28 89 1007.2
20260505205907 10 48 0.0 12.9 0.08 0.28 0.28 89 1007.2
20260505205406 10 58 0.0 3.2 0.08 0.28 0.28 89 1007.2
20260505204906 10 54 3.2 9.7 0.08 0.28 0.28 89 1007.2
20260505204407 10 65 0.0 3.2 0.08 0.25 0.25 89 1007.2
20260505203907 10 56 0.0 3.2 0.08 0.25 0.25 89 1007.2
20260505203407 10 33 0.0 3.2 0.08 0.25 0.25 89 1007.2
20260505202907 10 42 1.6 8.0 0.08 0.23 0.23 89 1007.2
20260505202407 10 45 0.0 9.7 0.08 0.23 0.23 89 1007.2
20260505201907 10 55 1.6 8.0 0.05 0.23 0.23 89 1007.2
20260505201407 10 57 0.0 0.0 0.05 0.23 0.23 89 1007.1
20260505200407 10 38 3.2 8.0 0.05 0.20 0.20 89 1007.1
20260505195907 10 75 1.6 4.8 0.05 0.20 0.20 89 1007.1
20260505195407 10 63 3.2 12.9 0.05 0.20 0.20 89 1007.0
20260505194907 10 72 1.6 11.3 0.08 0.20 0.20 89 1007.0
20260505194407 10 48 0.0 9.7 0.05 0.18 0.18 89 1007.0
20260505193907 10 55 0.0 12.9 0.05 0.18 0.18 89 1007.0
20260505193406 10 26 3.2 9.7 0.05 0.18 0.18 89 1007.0
20260505192907 10 60 1.6 4.8 0.05 0.15 0.15 89 1006.9
20260505192407 10 68 1.6 9.7 0.05 0.15 0.15 89 1006.9
20260505191907 10 56 1.6 8.0 0.05 0.15 0.15 89 1006.9
20260505191407 10 41 0.0 11.3 0.05 0.15 0.15 89 1006.9
20260505190907 10 63 1.6 11.3 0.05 0.15 0.15 89 1006.9
20260505190407 10 68 1.6 4.8 0.05 0.15 0.15 89 1006.8
20260505185906 10 65 0.0 4.8 0.05 0.15 0.15 89 1006.8